| time (UTC) | temp F | wind direction | speed knots | gust knots | rain 1hr in | rain 24hr in | rain mn in | humidity % | barometer mb |
| 20260504043038 | 57 | 204 | 2.6 | 4.3 | 0.00 | 0.00 | 0.00 | 72 | 1007.4 |
| 20260504041538 | 56 | 110 | 0.9 | 1.7 | 0.00 | 0.00 | 0.00 | 76 | 1007.3 |
| 20260504040059 | 58 | 110 | 0.9 | 3.5 | 0.00 | 0.00 | 0.00 | 72 | 1007.2 |
| 20260504034538 | 58 | 142 | 0.9 | 1.7 | 0.00 | 0.00 | 0.00 | 72 | 1007.1 |
| 20260504033037 | 61 | 143 | 0.0 | 0.9 | 0.00 | 0.00 | 0.00 | 67 | 1006.9 |
| 20260504031537 | 64 | 143 | 0.9 | 2.6 | 0.00 | 0.00 | 0.00 | 65 | 1006.8 |
| 20260504030035 | 71 | 113 | 0.9 | 2.6 | 0.00 | 0.00 | 0.00 | 50 | 1006.8 |
| 20260504024534 | 74 | 101 | 1.7 | 2.6 | 0.00 | 0.00 | 0.00 | 44 | 1006.8 |
| 20260504023033 | 76 | 356 | 0.0 | 1.7 | 0.00 | 0.00 | 0.00 | 40 | 1006.8 |
| 20260504021532 | 77 | 11 | 0.9 | 4.3 | 0.00 | 0.00 | 0.00 | 39 | 1006.9 |
| 20260504020030 | 78 | 18 | 2.6 | 4.3 | 0.00 | 0.00 | 0.00 | 37 | 1007.1 |
| 20260504014529 | 79 | 345 | 3.5 | 7.0 | 0.00 | 0.00 | 0.00 | 35 | 1007.2 |
| 20260504013028 | 79 | 18 | 4.3 | 7.0 | 0.00 | 0.00 | 0.00 | 34 | 1007.4 |
| 20260504011526 | 79 | 345 | 5.2 | 8.7 | 0.00 | 0.00 | 0.00 | 32 | 1007.5 |
| 20260504010025 | 80 | 7 | 6.1 | 9.6 | 0.00 | 0.00 | 0.00 | 28 | 1007.6 |
| 20260504004537 | 80 | 10 | 6.1 | 9.6 | 0.00 | 0.00 | 0.00 | 30 | 1007.8 |
| 20260504003021 | 80 | 50 | 7.0 | 9.6 | 0.00 | 0.00 | 0.00 | 30 | 1007.9 |
| 20260504001521 | 80 | 36 | 7.8 | 13.9 | 0.00 | 0.00 | 0.00 | 30 | 1008.1 |
| 20260504000020 | 80 | 4 | 7.8 | 12.2 | 0.00 | 0.00 | 0.00 | 27 | 1008.1 |
| 20260503234518 | 80 | 31 | 8.7 | 13.0 | 0.00 | 0.00 | 0.00 | 26 | 1008.4 |
| 20260503233020 | 80 | 11 | 8.7 | 13.9 | 0.00 | 0.00 | 0.00 | 28 | 1008.4 |
| 20260503231515 | 81 | 13 | 7.0 | 12.2 | 0.00 | 0.00 | 0.00 | 28 | 1008.6 |
| 20260503230014 | 80 | 20 | 8.7 | 13.9 | 0.00 | 0.00 | 0.00 | 28 | 1008.6 |
| 20260503224512 | 81 | 30 | 6.1 | 11.3 | 0.00 | 0.00 | 0.00 | 28 | 1008.8 |
| 20260503223009 | 80 | 26 | 5.2 | 10.4 | 0.00 | 0.00 | 0.00 | 25 | 1009.0 |
| 20260503221510 | 80 | 27 | 8.7 | 13.0 | 0.00 | 0.00 | 0.00 | 26 | 1009.2 |
| 20260503220004 | 80 | 356 | 6.1 | 10.4 | 0.00 | 0.00 | 0.00 | 29 | 1009.4 |
| 20260503214503 | 80 | 8 | 4.3 | 8.7 | 0.00 | 0.00 | 0.00 | 36 | 1009.5 |
| 20260503213058 | 80 | 34 | 4.3 | 9.6 | 0.00 | 0.00 | 0.00 | 33 | 1009.7 |
| 20260503211558 | 80 | 29 | 5.2 | 9.6 | 0.00 | 0.00 | 0.00 | 32 | 1009.9 |
| 20260503210055 | 80 | 43 | 4.3 | 7.8 | 0.00 | 0.00 | 0.00 | 34 | 1010.1 |
| 20260503204553 | 80 | 340 | 1.7 | 5.2 | 0.00 | 0.00 | 0.00 | 34 | 1010.2 |
| 20260503203051 | 80 | 219 | 0.9 | 5.2 | 0.00 | 0.00 | 0.00 | 34 | 1010.4 |
| 20260503201549 | 81 | 134 | 0.0 | 1.7 | 0.00 | 0.00 | 0.00 | 35 | 1010.7 |
| 20260503200050 | 78 | 283 | 0.9 | 4.3 | 0.00 | 0.00 | 0.00 | 39 | 1010.9 |
| 20260503194543 | 77 | 271 | 2.6 | 4.3 | 0.00 | 0.00 | 0.00 | 37 | 1011.0 |
| 20260503193044 | 76 | 292 | 1.7 | 4.3 | 0.00 | 0.00 | 0.00 | 38 | 1011.2 |
| 20260503191539 | 75 | 221 | 0.9 | 4.3 | 0.00 | 0.00 | 0.00 | 40 | 1011.5 |
| 20260503190044 | 75 | 302 | 1.7 | 5.2 | 0.00 | 0.00 | 0.00 | 40 | 1011.7 |
| 20260503184535 | 74 | 18 | 0.0 | 4.3 | 0.00 | 0.00 | 0.00 | 40 | 1011.9 |
| 20260503183036 | 73 | 21 | 1.7 | 5.2 | 0.00 | 0.00 | 0.00 | 41 | 1012.0 |
| 20260503181531 | 73 | 331 | 1.7 | 5.2 | 0.00 | 0.00 | 0.00 | 46 | 1012.1 |
| 20260503180031 | 72 | 213 | 1.7 | 3.5 | 0.00 | 0.00 | 0.00 | 42 | 1012.3 |
| 20260503174532 | 71 | 360 | 0.9 | 3.5 | 0.00 | 0.00 | 0.00 | 43 | 1012.3 |
| 20260503173028 | 71 | 6 | 0.0 | 4.3 | 0.00 | 0.00 | 0.00 | 47 | 1012.4 |
| 20260503171525 | 71 | 105 | 0.9 | 2.6 | 0.00 | 0.00 | 0.00 | 45 | 1012.4 |
| 20260503150109 | 57 | 158 | 0.0 | 0.9 | 0.00 | 0.00 | 0.00 | 71 | 1012.6 |
| 20260503081513 | 55 | 224 | 1.7 | 3.5 | 0.00 | 0.00 | 0.00 | 79 | 1011.5 |
| 20260503071501 | 54 | 224 | 0.9 | 1.7 | 0.00 | 0.00 | 0.00 | 78 | 1011.1 |
| 20260503070113 | 56 | 224 | 0.0 | 2.6 | 0.00 | 0.00 | 0.00 | 75 | 1010.9 |
| 20260503060119 | 56 | 224 | 0.9 | 1.7 | 0.00 | 0.00 | 0.00 | 78 | 1010.8 |
| 20260503054600 | 55 | 224 | 1.7 | 2.6 | 0.00 | 0.00 | 0.00 | 78 | 1010.7 |
| 20260503053052 | 57 | 148 | 2.6 | 4.3 | 0.00 | 0.00 | 0.00 | 75 | 1010.6 |
| 20260503051553 | 58 | 149 | 4.3 | 6.1 | 0.00 | 0.00 | 0.00 | 72 | 1010.6 |
| 20260503050053 | 57 | 202 | 2.6 | 6.1 | 0.00 | 0.00 | 0.00 | 73 | 1010.5 |
| 20260503044550 | 58 | 156 | 4.3 | 6.1 | 0.00 | 0.00 | 0.00 | 72 | 1010.4 |